Time,TemperatureF,DewpointF,PressureIn,WindDirection,WindDirectionDegrees,WindSpeedMPH,WindSpeedGustMPH,Humidity,HourlyPrecipIn,Conditions,Clouds,dailyrainin,SoftwareType,DateUTC
2013-06-18 00:01:00,61.3,32.8,27.02,NE,50,0.0,0.0,34,0.00,,---,0.00,VWS V14.01,2013-06-18 05:01:00,
2013-06-18 00:06:00,60.8,32.3,27.02,NE,50,0.0,0.0,34,0.00,,---,0.00,VWS V14.01,2013-06-18 05:06:00,
2013-06-18 00:11:00,60.8,32.3,27.02,NE,50,0.0,0.0,34,0.00,,---,0.00,VWS V14.01,2013-06-18 05:11:00,
2013-06-18 00:16:00,60.8,32.3,26.99,NE,50,0.0,0.0,34,0.00,,---,0.00,VWS V14.01,2013-06-18 05:16:00,
2013-06-18 00:21:00,61.0,32.4,26.99,NE,50,0.0,0.0,34,0.00,,---,0.00,VWS V14.01,2013-06-18 05:21:00,
2013-06-18 00:26:00,61.3,32.8,26.99,NE,50,0.0,0.0,34,0.00,,---,0.00,VWS V14.01,2013-06-18 05:26:00,
2013-06-18 00:31:00,62.1,33.4,26.99,NE,50,0.0,0.0,34,0.00,,---,0.00,VWS V14.01,2013-06-18 05:31:00,
2013-06-18 00:36:00,62.4,33.7,26.99,NE,50,0.0,0.0,34,0.00,,---,0.00,VWS V14.01,2013-06-18 05:36:00,
2013-06-18 00:41:00,62.6,33.9,26.99,NE,50,0.0,0.0,34,0.00,,---,0.00,VWS V14.01,2013-06-18 05:41:00,
2013-06-18 00:46:00,62.4,33.7,27.02,NE,50,0.0,0.0,34,0.00,,---,0.00,VWS V14.01,2013-06-18 05:46:00,
2013-06-18 00:51:00,62.4,33.7,27.02,NE,50,0.0,0.0,34,0.00,,---,0.00,VWS V14.01,2013-06-18 05:51:00,
2013-06-18 00:56:00,62.1,33.4,27.02,NE,50,0.0,0.0,34,0.00,,---,0.00,VWS V14.01,2013-06-18 05:56:00,
2013-06-18 01:01:00,61.7,33.1,27.02,NE,50,0.0,0.0,34,0.00,,---,0.00,VWS V14.01,2013-06-18 06:01:00,
2013-06-18 01:06:00,61.2,32.6,27.02,NE,44,0.0,0.0,34,0.00,,---,0.00,VWS V14.01,2013-06-18 06:06:00,
2013-06-18 01:11:00,60.8,32.3,27.02,NE,44,0.0,0.0,34,0.00,,---,0.00,VWS V14.01,2013-06-18 06:11:00,
2013-06-18 01:16:00,60.6,32.8,27.02,NE,44,0.0,0.0,35,0.00,,---,0.00,VWS V14.01,2013-06-18 06:16:00,
2013-06-18 01:21:00,61.0,32.4,27.02,NE,44,0.0,0.0,34,0.00,,---,0.00,VWS V14.01,2013-06-18 06:21:00,
2013-06-18 01:26:00,61.3,32.8,27.02,NE,44,0.0,0.0,34,0.00,,---,0.00,VWS V14.01,2013-06-18 06:26:00,
2013-06-18 01:31:00,60.6,32.8,27.02,NE,47,0.0,0.0,35,0.00,,---,0.00,VWS V14.01,2013-06-18 06:31:00,
2013-06-18 01:36:00,61.0,32.4,27.02,NE,47,0.0,0.0,34,0.00,,---,0.00,VWS V14.01,2013-06-18 06:36:00,
2013-06-18 01:41:00,61.0,32.4,27.02,NE,47,0.0,0.0,34,0.00,,---,0.00,VWS V14.01,2013-06-18 06:41:00,
2013-06-18 01:46:00,60.6,32.8,27.02,NE,47,0.0,0.0,35,0.00,,---,0.00,VWS V14.01,2013-06-18 06:46:00,
2013-06-18 01:51:00,60.1,32.4,27.02,NE,47,0.0,0.0,35,0.00,,---,0.00,VWS V14.01,2013-06-18 06:51:00,
2013-06-18 01:56:00,59.9,32.2,27.02,NE,47,0.0,0.0,35,0.00,,---,0.00,VWS V14.01,2013-06-18 06:56:00,
2013-06-18 02:01:00,60.4,32.7,27.02,NE,47,0.0,0.0,35,0.00,,---,0.00,VWS V14.01,2013-06-18 07:01:00,
2013-06-18 02:06:00,60.1,32.4,27.02,NE,47,0.0,0.0,35,0.00,,---,0.00,VWS V14.01,2013-06-18 07:06:00,
2013-06-18 02:11:00,60.3,32.5,27.02,NE,47,0.0,0.0,35,0.00,,---,0.00,VWS V14.01,2013-06-18 07:11:00,
2013-06-18 02:16:00,60.8,33.0,27.02,NE,47,0.0,0.0,35,0.00,,---,0.00,VWS V14.01,2013-06-18 07:16:00,
2013-06-18 02:21:00,61.3,32.8,27.02,NE,47,0.0,0.0,34,0.00,,---,0.00,VWS V14.01,2013-06-18 07:21:00,
2013-06-18 02:26:00,61.2,32.6,27.02,NE,47,0.0,0.0,34,0.00,,---,0.00,VWS V14.01,2013-06-18 07:26:00,
2013-06-18 02:31:00,61.5,32.9,27.02,NE,47,2.2,2.2,34,0.00,,---,0.00,VWS V14.01,2013-06-18 07:31:00,
2013-06-18 02:36:00,61.7,33.1,27.02,NE,47,0.0,0.0,34,0.00,,---,0.00,VWS V14.01,2013-06-18 07:36:00,
2013-06-18 02:41:00,61.7,33.1,27.02,NE,47,0.0,0.0,34,0.00,,---,0.00,VWS V14.01,2013-06-18 07:41:00,
2013-06-18 02:46:00,61.7,33.1,27.02,NE,47,0.0,0.0,34,0.00,,---,0.00,VWS V14.01,2013-06-18 07:46:00,
2013-06-18 02:51:00,61.9,33.2,27.02,NE,47,0.0,0.0,34,0.00,,---,0.00,VWS V14.01,2013-06-18 07:51:00,
2013-06-18 02:56:00,61.9,33.2,27.02,NE,47,0.0,0.0,34,0.00,,---,0.00,VWS V14.01,2013-06-18 07:56:00,
2013-06-18 03:01:00,61.9,33.2,27.02,NE,47,0.0,0.0,34,0.00,,---,0.00,VWS V14.01,2013-06-18 08:01:00,
2013-06-18 03:06:00,62.1,33.4,27.02,NE,47,0.0,0.0,34,0.00,,---,0.00,VWS V14.01,2013-06-18 08:06:00,
2013-06-18 03:11:00,62.1,33.4,27.02,NE,47,0.0,0.0,34,0.00,,---,0.00,VWS V14.01,2013-06-18 08:11:00,
2013-06-18 03:16:00,62.2,33.5,27.02,NE,47,0.0,0.0,34,0.00,,---,0.00,VWS V14.01,2013-06-18 08:16:00,
2013-06-18 03:21:00,62.4,33.7,27.02,NE,47,0.0,0.0,34,0.00,,---,0.00,VWS V14.01,2013-06-18 08:21:00,
2013-06-18 03:26:00,62.6,33.9,27.02,NE,47,0.0,0.0,34,0.00,,---,0.00,VWS V14.01,2013-06-18 08:26:00,
2013-06-18 03:31:00,62.6,33.9,27.02,NE,47,0.0,0.0,34,0.00,,---,0.00,VWS V14.01,2013-06-18 08:31:00,
2013-06-18 03:36:00,62.2,33.5,27.02,NE,47,0.0,0.0,34,0.00,,---,0.00,VWS V14.01,2013-06-18 08:36:00,
2013-06-18 03:41:00,62.2,33.5,27.02,NE,47,0.0,0.0,34,0.00,,---,0.00,VWS V14.01,2013-06-18 08:41:00,
2013-06-18 03:46:00,62.2,33.5,27.02,NE,47,0.0,0.0,34,0.00,,---,0.00,VWS V14.01,2013-06-18 08:46:00,
2013-06-18 03:51:00,62.4,33.7,27.02,NE,43,3.6,3.6,34,0.00,,---,0.00,VWS V14.01,2013-06-18 08:51:00,
2013-06-18 03:56:00,62.6,33.9,27.02,NE,43,0.0,0.0,34,0.00,,---,0.00,VWS V14.01,2013-06-18 08:56:00,
2013-06-18 04:01:00,62.8,34.0,26.99,NE,43,0.0,0.0,34,0.00,,---,0.00,VWS V14.01,2013-06-18 09:01:00,
2013-06-18 04:06:00,63.0,34.2,26.99,WNW,296,4.0,4.0,34,0.00,,---,0.00,VWS V14.01,2013-06-18 09:06:00,
2013-06-18 04:11:00,63.1,34.3,26.99,NW,321,2.7,5.4,34,0.00,,---,0.00,VWS V14.01,2013-06-18 09:11:00,
2013-06-18 04:16:00,63.5,34.7,27.05,West,261,4.5,7.2,34,0.00,,---,0.00,VWS V14.01,2013-06-18 09:16:00,
2013-06-18 04:21:00,64.0,35.1,27.05,SSW,211,3.6,3.6,34,0.00,,---,0.00,VWS V14.01,2013-06-18 09:21:00,
2013-06-18 04:26:00,62.6,33.9,27.05,North,0,4.0,5.4,34,0.00,,---,0.00,VWS V14.01,2013-06-18 09:26:00,
2013-06-18 04:31:00,61.5,32.9,27.05,NW,314,7.2,7.2,34,0.00,,---,0.00,VWS V14.01,2013-06-18 09:31:00,
2013-06-18 04:36:00,60.6,32.8,27.05,SW,216,3.6,3.6,35,0.00,,---,0.00,VWS V14.01,2013-06-18 09:36:00,
2013-06-18 04:41:00,59.9,32.2,27.05,South,187,0.0,2.2,35,0.00,,---,0.00,VWS V14.01,2013-06-18 09:41:00,
2013-06-18 04:46:00,59.9,32.2,27.05,SW,222,5.4,5.4,35,0.04,,---,0.04,VWS V14.01,2013-06-18 09:46:00,
2013-06-18 04:51:00,59.5,32.6,27.05,SSW,202,3.1,3.1,36,0.04,,---,0.04,VWS V14.01,2013-06-18 09:51:00,
2013-06-18 04:56:00,59.4,32.4,27.05,NW,307,3.6,3.6,36,0.12,,---,0.12,VWS V14.01,2013-06-18 09:56:00,
2013-06-18 05:01:00,58.8,32.0,27.02,WNW,288,0.0,0.0,36,0.12,,---,0.12,VWS V14.01,2013-06-18 10:01:00,
2013-06-18 05:06:00,58.8,32.0,27.02,SSW,193,4.0,4.0,36,0.12,,---,0.12,VWS V14.01,2013-06-18 10:06:00,
2013-06-18 05:11:00,58.6,31.8,27.02,South,190,0.0,0.0,36,0.16,,---,0.16,VWS V14.01,2013-06-18 10:11:00,
2013-06-18 05:16:00,58.6,32.5,27.02,East,84,0.0,0.0,37,0.16,,---,0.16,VWS V14.01,2013-06-18 10:16:00,
2013-06-18 05:21:00,59.0,32.8,27.02,North,353,2.7,2.7,37,0.16,,---,0.16,VWS V14.01,2013-06-18 10:21:00,
2013-06-18 05:26:00,59.2,33.6,27.02,WNW,289,3.1,3.1,38,0.16,,---,0.16,VWS V14.01,2013-06-18 10:26:00,
2013-06-18 05:31:00,59.2,31.6,27.02,WSW,255,6.3,6.3,35,0.16,,---,0.16,VWS V14.01,2013-06-18 10:31:00,
2013-06-18 05:36:00,59.4,31.7,27.02,SW,219,4.9,4.9,35,0.16,,---,0.16,VWS V14.01,2013-06-18 10:36:00,
2013-06-18 05:40:00,59.0,31.4,27.02,West,275,0.0,4.0,35,0.16,,---,0.16,VWS V14.01,2013-06-18 10:40:00,
2013-06-18 05:45:00,58.8,32.0,27.02,WNW,291,0.0,0.0,36,0.12,,---,0.16,VWS V14.01,2013-06-18 10:45:00,
2013-06-18 05:50:00,59.0,31.4,27.02,SW,220,2.7,2.7,35,0.16,,---,0.20,VWS V14.01,2013-06-18 10:50:00,
2013-06-18 05:55:00,59.2,32.3,27.02,South,182,4.9,4.9,36,0.12,,---,0.24,VWS V14.01,2013-06-18 10:55:00,
2013-06-18 06:00:00,59.2,31.6,27.02,SW,216,6.3,6.3,35,0.12,,---,0.24,VWS V14.01,2013-06-18 11:00:00,
2013-06-18 06:05:00,58.8,31.2,27.02,SSE,168,4.0,4.0,35,0.12,,---,0.24,VWS V14.01,2013-06-18 11:05:00,
2013-06-18 06:10:00,58.5,30.9,27.02,SE,139,4.0,4.0,35,0.08,,---,0.24,VWS V14.01,2013-06-18 11:10:00,
2013-06-18 06:15:00,58.5,30.9,27.02,SE,138,0.0,0.0,35,0.12,,---,0.28,VWS V14.01,2013-06-18 11:15:00,
2013-06-18 06:20:00,58.3,30.8,27.02,SE,140,3.6,3.6,35,0.12,,---,0.28,VWS V14.01,2013-06-18 11:20:00,
2013-06-18 06:25:00,58.8,31.2,27.02,SE,140,3.1,3.1,35,0.12,,---,0.28,VWS V14.01,2013-06-18 11:25:00,
2013-06-18 06:30:00,59.5,32.6,26.99,East,92,2.7,2.7,36,0.12,,---,0.28,VWS V14.01,2013-06-18 11:30:00,
2013-06-18 06:35:00,59.0,32.1,26.99,East,98,2.2,2.2,36,0.12,,---,0.28,VWS V14.01,2013-06-18 11:35:00,
2013-06-18 06:40:00,59.4,32.4,26.99,SE,137,5.8,5.8,36,0.16,,---,0.31,VWS V14.01,2013-06-18 11:40:00,
2013-06-18 06:45:00,59.7,32.7,26.99,SE,127,10.5,10.5,36,0.16,,---,0.31,VWS V14.01,2013-06-18 11:45:00,
2013-06-18 06:50:00,59.5,32.6,26.99,SE,134,7.6,7.6,36,0.12,,---,0.31,VWS V14.01,2013-06-18 11:50:00,
2013-06-18 06:55:00,59.5,31.9,26.99,SE,130,8.1,8.1,35,0.08,,---,0.31,VWS V14.01,2013-06-18 11:55:00,
2013-06-18 07:00:00,59.7,32.0,26.96,SE,144,9.2,9.2,35,0.08,,---,0.31,VWS V14.01,2013-06-18 12:00:00,
2013-06-18 07:05:00,59.7,32.0,26.96,ESE,111,8.1,8.1,35,0.08,,---,0.31,VWS V14.01,2013-06-18 12:05:00,
2013-06-18 07:10:00,59.5,31.9,26.96,SE,137,5.4,5.4,35,0.08,,---,0.31,VWS V14.01,2013-06-18 12:10:00,
2013-06-18 07:15:00,59.4,31.7,26.96,SE,133,5.8,6.3,35,0.04,,---,0.31,VWS V14.01,2013-06-18 12:15:00,
2013-06-18 07:20:00,59.7,32.0,26.96,SE,130,5.4,5.4,35,0.04,,---,0.31,VWS V14.01,2013-06-18 12:20:00,
2013-06-18 07:25:00,59.7,32.0,26.96,SE,135,3.6,4.9,35,0.04,,---,0.31,VWS V14.01,2013-06-18 12:25:00,
2013-06-18 07:30:00,59.4,31.7,26.99,SE,135,0.0,0.0,35,0.04,,---,0.31,VWS V14.01,2013-06-18 12:30:00,
2013-06-18 07:35:00,59.2,31.6,26.99,SE,135,0.0,0.0,35,0.04,,---,0.31,VWS V14.01,2013-06-18 12:35:00,
2013-06-18 07:40:00,59.4,31.7,26.99,SE,135,0.0,0.0,35,0.00,,---,0.31,VWS V14.01,2013-06-18 12:40:00,
2013-06-18 07:45:00,59.7,32.0,26.99,SE,135,0.0,0.0,35,0.00,,---,0.31,VWS V14.01,2013-06-18 12:45:00,
2013-06-18 07:50:00,60.1,32.4,26.99,North,350,0.0,0.0,35,0.00,,---,0.31,VWS V14.01,2013-06-18 12:50:00,
2013-06-18 07:55:00,60.6,32.8,26.99,NNE,16,0.0,0.0,35,0.00,,---,0.31,VWS V14.01,2013-06-18 12:55:00,
2013-06-18 08:00:00,61.2,33.3,27.02,North,357,0.0,0.0,35,0.00,,---,0.31,VWS V14.01,2013-06-18 13:00:00,
2013-06-18 08:05:00,61.5,33.6,27.02,NE,36,0.0,0.0,35,0.00,,---,0.31,VWS V14.01,2013-06-18 13:05:00,
2013-06-18 08:10:00,61.9,34.0,27.02,NE,36,0.0,0.0,35,0.00,,---,0.31,VWS V14.01,2013-06-18 13:10:00,
2013-06-18 08:15:00,62.2,34.3,27.02,NE,36,0.0,0.0,35,0.00,,---,0.31,VWS V14.01,2013-06-18 13:15:00,
2013-06-18 08:20:00,62.6,34.6,27.02,NE,36,0.0,0.0,35,0.00,,---,0.31,VWS V14.01,2013-06-18 13:20:00,
2013-06-18 08:25:00,63.0,34.9,27.02,NE,36,0.0,0.0,35,0.00,,---,0.31,VWS V14.01,2013-06-18 13:25:00,
2013-06-18 08:30:00,63.5,35.4,27.02,NW,305,0.0,0.0,35,0.00,,---,0.31,VWS V14.01,2013-06-18 13:30:00,
2013-06-18 08:35:00,64.0,35.9,27.02,NW,305,0.0,0.0,35,0.00,,---,0.31,VWS V14.01,2013-06-18 13:35:00,
2013-06-18 08:40:00,64.6,35.6,27.02,NW,305,0.0,0.0,34,0.00,,---,0.31,VWS V14.01,2013-06-18 13:40:00,
2013-06-18 08:45:00,65.1,36.1,27.02,WNW,290,3.6,3.6,34,0.00,,---,0.31,VWS V14.01,2013-06-18 13:45:00,
2013-06-18 08:50:00,66.0,36.1,27.02,NW,311,3.6,3.6,33,0.00,,---,0.31,VWS V14.01,2013-06-18 13:50:00,
2013-06-18 08:55:00,66.6,36.6,27.02,NW,321,0.0,0.0,33,0.00,,---,0.31,VWS V14.01,2013-06-18 13:55:00,
2013-06-18 09:00:00,66.7,36.8,27.02,NW,311,3.1,3.1,33,0.00,,---,0.31,VWS V14.01,2013-06-18 14:00:00,
2013-06-18 09:05:00,66.7,36.8,27.02,NW,325,2.7,2.7,33,0.00,,---,0.31,VWS V14.01,2013-06-18 14:05:00,
2013-06-18 09:10:00,69.8,38.6,27.02,NW,315,0.0,0.0,32,0.00,,---,0.31,VWS V14.01,2013-06-18 14:10:00,
2013-06-18 09:15:00,72.3,40.8,27.02,NW,315,0.0,0.0,32,0.00,,---,0.31,VWS V14.01,2013-06-18 14:15:00,
2013-06-18 09:20:00,72.3,40.8,27.02,NW,307,0.0,0.0,32,0.00,,---,0.31,VWS V14.01,2013-06-18 14:20:00,
2013-06-18 09:25:00,74.8,42.2,27.02,NNW,334,2.7,2.7,31,0.00,,---,0.31,VWS V14.01,2013-06-18 14:25:00,
2013-06-18 09:30:00,77.0,44.1,26.99,North,8,2.2,2.2,31,0.00,,---,0.31,VWS V14.01,2013-06-18 14:30:00,
2013-06-18 09:35:00,78.1,45.0,26.99,NW,322,2.7,2.7,31,0.00,,---,0.31,VWS V14.01,2013-06-18 14:35:00,
2013-06-18 09:40:00,78.1,45.0,26.99,NW,322,0.0,0.0,31,0.00,,---,0.31,VWS V14.01,2013-06-18 14:40:00,
2013-06-18 09:45:00,78.3,45.2,26.99,NNW,330,2.7,2.7,31,0.00,,---,0.31,VWS V14.01,2013-06-18 14:45:00,
2013-06-18 09:50:00,75.7,43.0,26.99,SW,224,2.2,2.7,31,0.00,,---,0.31,VWS V14.01,2013-06-18 14:50:00,
2013-06-18 09:55:00,78.3,45.2,26.99,SW,222,0.0,0.0,31,0.00,,---,0.31,VWS V14.01,2013-06-18 14:55:00,
2013-06-18 10:00:00,80.1,45.9,26.99,SW,221,0.0,0.0,30,0.00,,---,0.31,VWS V14.01,2013-06-18 15:00:00,
2013-06-18 10:05:00,77.7,44.7,26.99,SW,226,3.6,3.6,31,0.00,,---,0.31,VWS V14.01,2013-06-18 15:05:00,
2013-06-18 10:10:00,78.3,45.2,26.99,SSW,198,3.1,3.1,31,0.00,,---,0.31,VWS V14.01,2013-06-18 15:10:00,
2013-06-18 10:15:00,82.0,47.6,26.99,WNW,297,2.7,2.7,30,0.00,,---,0.31,VWS V14.01,2013-06-18 15:15:00,
2013-06-18 10:20:00,79.9,45.7,26.99,NW,313,2.7,3.6,30,0.00,,---,0.31,VWS V14.01,2013-06-18 15:20:00,
2013-06-18 10:25:00,79.2,45.1,26.99,NNW,328,3.1,4.0,30,0.00,,---,0.31,VWS V14.01,2013-06-18 15:25:00,
2013-06-18 10:30:00,78.1,45.0,26.99,WSW,255,0.0,3.6,31,0.00,,---,0.31,VWS V14.01,2013-06-18 15:30:00,
2013-06-18 10:35:00,80.2,46.0,26.99,WNW,295,4.0,4.0,30,0.00,,---,0.31,VWS V14.01,2013-06-18 15:35:00,
2013-06-18 10:40:00,84.6,48.8,26.99,WNW,284,0.0,0.0,29,0.00,,---,0.31,VWS V14.01,2013-06-18 15:40:00,
2013-06-18 10:45:00,80.4,46.2,26.99,West,278,3.6,3.6,30,0.00,,---,0.31,VWS V14.01,2013-06-18 15:45:00,
2013-06-18 10:50:00,81.5,47.1,26.99,South,176,2.2,2.2,30,0.00,,---,0.31,VWS V14.01,2013-06-18 15:50:00,
2013-06-18 10:55:00,82.8,47.3,26.99,SSW,198,0.0,0.0,29,0.00,,---,0.31,VWS V14.01,2013-06-18 15:55:00,
2013-06-18 11:00:00,84.2,48.5,26.99,WSW,244,0.0,0.0,29,0.00,,---,0.31,VWS V14.01,2013-06-18 16:00:00,
2013-06-18 11:05:00,83.8,48.2,26.99,WNW,282,2.7,2.7,29,0.00,,---,0.31,VWS V14.01,2013-06-18 16:05:00,
2013-06-18 11:10:00,83.5,47.9,26.99,SW,229,0.0,0.0,29,0.00,,---,0.31,VWS V14.01,2013-06-18 16:10:00,
2013-06-18 11:15:00,84.2,48.5,26.99,SW,215,2.2,2.2,29,0.00,,---,0.31,VWS V14.01,2013-06-18 16:15:00,
2013-06-18 11:20:00,86.4,50.4,26.99,SSW,194,0.0,0.0,29,0.00,,---,0.31,VWS V14.01,2013-06-18 16:20:00,
2013-06-18 11:25:00,88.7,51.4,26.99,South,182,0.0,3.1,28,0.00,,---,0.31,VWS V14.01,2013-06-18 16:25:00,
2013-06-18 11:30:00,88.2,51.0,26.99,South,177,2.2,2.2,28,0.00,,---,0.31,VWS V14.01,2013-06-18 16:30:00,
2013-06-18 11:35:00,86.9,50.8,26.99,South,173,4.9,4.9,29,0.00,,---,0.31,VWS V14.01,2013-06-18 16:35:00,
2013-06-18 11:40:00,83.7,48.1,26.99,South,190,8.7,8.7,29,0.00,,---,0.31,VWS V14.01,2013-06-18 16:40:00,
2013-06-18 11:45:00,81.3,47.0,26.99,SSW,208,4.0,4.0,30,0.00,,---,0.31,VWS V14.01,2013-06-18 16:45:00,
2013-06-18 11:50:00,79.7,45.6,26.99,SSW,210,5.4,5.4,30,0.00,,---,0.31,VWS V14.01,2013-06-18 16:50:00,
2013-06-18 11:55:00,80.8,46.5,26.99,SW,216,3.1,3.1,30,0.00,,---,0.31,VWS V14.01,2013-06-18 16:55:00,
2013-06-18 12:00:00,82.9,47.5,26.99,South,184,5.8,5.8,29,0.00,,---,0.31,VWS V14.01,2013-06-18 17:00:00,
2013-06-18 12:05:00,80.2,46.0,26.99,SSW,202,4.9,4.9,30,0.00,,---,0.31,VWS V14.01,2013-06-18 17:05:00,
2013-06-18 12:10:00,83.5,47.9,26.99,SSE,152,4.0,4.0,29,0.00,,---,0.31,VWS V14.01,2013-06-18 17:10:00,
2013-06-18 12:15:00,84.9,49.2,26.99,SSE,149,3.6,3.6,29,0.00,,---,0.31,VWS V14.01,2013-06-18 17:15:00,
2013-06-18 12:20:00,84.2,48.5,26.99,SW,214,3.6,3.6,29,0.00,,---,0.31,VWS V14.01,2013-06-18 17:20:00,
2013-06-18 12:25:00,86.5,50.5,26.99,SSE,165,2.7,2.7,29,0.00,,---,0.31,VWS V14.01,2013-06-18 17:25:00,
2013-06-18 12:30:00,85.8,49.9,26.99,SSW,200,2.7,2.7,29,0.00,,---,0.31,VWS V14.01,2013-06-18 17:30:00,
2013-06-18 12:35:00,87.8,50.7,26.99,West,266,0.0,0.0,28,0.00,,---,0.31,VWS V14.01,2013-06-18 17:35:00,
2013-06-18 12:40:00,86.2,50.2,26.99,WNW,296,0.0,0.0,29,0.00,,---,0.31,VWS V14.01,2013-06-18 17:40:00,
2013-06-18 12:45:00,86.0,50.1,26.99,West,280,3.1,3.1,29,0.00,,---,0.31,VWS V14.01,2013-06-18 17:45:00,
2013-06-18 12:50:00,85.8,49.9,26.99,WNW,301,2.2,2.2,29,0.00,,---,0.31,VWS V14.01,2013-06-18 17:50:00,
2013-06-18 12:55:00,86.7,50.7,26.99,WSW,250,3.6,3.6,29,0.00,,---,0.31,VWS V14.01,2013-06-18 17:55:00,
2013-06-18 13:00:00,88.5,51.3,26.99,NW,305,0.0,0.0,28,0.00,,---,0.31,VWS V14.01,2013-06-18 18:00:00,
2013-06-18 13:05:00,89.4,52.1,26.99,South,180,5.8,5.8,28,0.00,,---,0.31,VWS V14.01,2013-06-18 18:05:00,
2013-06-18 13:10:00,89.2,51.9,26.99,SSW,200,4.0,4.0,28,0.00,,---,0.31,VWS V14.01,2013-06-18 18:10:00,
2013-06-18 13:15:00,89.4,52.1,26.99,ENE,64,0.0,0.0,28,0.00,,---,0.31,VWS V14.01,2013-06-18 18:15:00,
2013-06-18 13:20:00,88.3,51.1,26.99,NE,43,2.2,2.2,28,0.00,,---,0.31,VWS V14.01,2013-06-18 18:20:00,
2013-06-18 13:25:00,88.3,51.1,26.99,NE,36,2.2,2.2,28,0.00,,---,0.31,VWS V14.01,2013-06-18 18:25:00,
2013-06-18 13:30:00,90.1,52.7,26.96,ESE,106,2.2,2.2,28,0.00,,---,0.31,VWS V14.01,2013-06-18 18:30:00,
2013-06-18 13:35:00,91.8,53.1,26.96,ENE,66,0.0,2.2,27,0.00,,---,0.31,VWS V14.01,2013-06-18 18:35:00,
2013-06-18 13:40:00,93.7,54.7,26.96,SE,142,0.0,3.1,27,0.00,,---,0.31,VWS V14.01,2013-06-18 18:40:00,
2013-06-18 13:45:00,91.8,53.1,26.99,NE,44,3.1,3.1,27,0.00,,---,0.31,VWS V14.01,2013-06-18 18:45:00,
2013-06-18 13:50:00,91.8,53.1,26.99,NE,54,2.2,2.2,27,0.00,,---,0.31,VWS V14.01,2013-06-18 18:50:00,
2013-06-18 13:55:00,90.7,53.1,26.99,West,269,3.6,3.6,28,0.00,,---,0.31,VWS V14.01,2013-06-18 18:55:00,
2013-06-18 14:00:00,91.4,52.8,26.96,ENE,61,0.0,0.0,27,0.00,,---,0.31,VWS V14.01,2013-06-18 19:00:00,
2013-06-18 14:05:00,92.7,53.8,26.96,NE,46,2.7,2.7,27,0.00,,---,0.31,VWS V14.01,2013-06-18 19:05:00,
2013-06-18 14:10:00,91.9,53.2,26.96,East,80,0.0,0.0,27,0.00,,---,0.31,VWS V14.01,2013-06-18 19:10:00,
2013-06-18 14:15:00,91.8,53.1,26.96,East,81,2.7,2.7,27,0.00,,---,0.31,VWS V14.01,2013-06-18 19:15:00,
2013-06-18 14:20:00,91.6,52.9,26.96,ENE,65,2.7,2.7,27,0.00,,---,0.31,VWS V14.01,2013-06-18 19:20:00,
2013-06-18 14:25:00,90.3,52.8,26.96,East,90,2.7,2.7,28,0.00,,---,0.31,VWS V14.01,2013-06-18 19:25:00,
2013-06-18 14:30:00,87.6,51.5,26.96,ESE,104,3.6,3.6,29,0.00,,---,0.31,VWS V14.01,2013-06-18 19:30:00,
2013-06-18 14:35:00,87.6,51.5,26.96,ESE,120,2.7,2.7,29,0.00,,---,0.31,VWS V14.01,2013-06-18 19:35:00,
2013-06-18 14:40:00,90.1,52.7,26.96,East,97,3.1,3.1,28,0.00,,---,0.31,VWS V14.01,2013-06-18 19:40:00,
2013-06-18 14:45:00,88.5,51.3,26.96,East,82,3.6,3.6,28,0.00,,---,0.31,VWS V14.01,2013-06-18 19:45:00,
2013-06-18 14:50:00,86.7,50.7,26.96,East,95,3.6,3.6,29,0.00,,---,0.31,VWS V14.01,2013-06-18 19:50:00,
2013-06-18 14:55:00,86.9,50.8,26.96,ESE,110,5.4,5.4,29,0.00,,---,0.31,VWS V14.01,2013-06-18 19:55:00,
2013-06-18 15:00:00,86.4,50.4,26.96,ESE,113,3.1,3.1,29,0.00,,---,0.31,VWS V14.01,2013-06-18 20:00:00,
2013-06-18 15:05:00,83.5,47.9,26.96,East,96,3.6,3.6,29,0.00,,---,0.31,VWS V14.01,2013-06-18 20:05:00,
2013-06-18 15:10:00,86.4,50.4,26.96,ESE,104,3.6,3.6,29,0.00,,---,0.31,VWS V14.01,2013-06-18 20:10:00,
2013-06-18 15:15:00,85.6,49.8,26.96,ESE,117,3.1,3.1,29,0.00,,---,0.31,VWS V14.01,2013-06-18 20:15:00,
2013-06-18 15:20:00,86.5,50.5,26.96,East,92,3.6,3.6,29,0.00,,---,0.31,VWS V14.01,2013-06-18 20:20:00,
2013-06-18 15:25:00,87.1,51.0,26.96,ESE,117,3.1,3.1,29,0.00,,---,0.31,VWS V14.01,2013-06-18 20:25:00,
2013-06-18 15:30:00,87.8,50.7,26.96,ESE,106,3.6,3.6,28,0.00,,---,0.31,VWS V14.01,2013-06-18 20:30:00,
2013-06-18 15:35:00,87.4,51.3,26.96,East,99,3.1,3.1,29,0.00,,---,0.31,VWS V14.01,2013-06-18 20:35:00,
2013-06-18 15:40:00,84.2,48.5,26.96,ESE,123,5.4,6.7,29,0.00,,---,0.31,VWS V14.01,2013-06-18 20:40:00,
2013-06-18 15:45:00,87.1,51.0,26.96,East,79,4.0,4.0,29,0.00,,---,0.31,VWS V14.01,2013-06-18 20:45:00,
2013-06-18 15:50:00,88.0,50.8,26.96,ESE,112,2.7,3.1,28,0.00,,---,0.31,VWS V14.01,2013-06-18 20:50:00,
2013-06-18 15:55:00,85.5,49.6,26.96,ESE,117,4.0,4.0,29,0.00,,---,0.31,VWS V14.01,2013-06-18 20:55:00,
2013-06-18 16:00:00,85.3,49.5,26.96,ESE,116,4.0,4.0,29,0.00,,---,0.31,VWS V14.01,2013-06-18 21:00:00,
2013-06-18 16:05:00,84.2,48.5,26.96,East,85,4.0,4.0,29,0.00,,---,0.31,VWS V14.01,2013-06-18 21:05:00,
2013-06-18 16:10:00,84.0,48.4,26.96,East,87,5.4,5.4,29,0.00,,---,0.31,VWS V14.01,2013-06-18 21:10:00,
2013-06-18 16:15:00,85.6,49.8,26.96,ESE,119,4.9,4.9,29,0.00,,---,0.31,VWS V14.01,2013-06-18 21:15:00,
2013-06-18 16:20:00,83.8,48.2,26.96,SE,139,5.8,5.8,29,0.00,,---,0.31,VWS V14.01,2013-06-18 21:20:00,
2013-06-18 16:25:00,85.8,49.9,26.96,East,95,3.6,3.6,29,0.00,,---,0.31,VWS V14.01,2013-06-18 21:25:00,
2013-06-18 16:30:00,86.0,50.1,26.96,East,97,6.3,6.3,29,0.00,,---,0.31,VWS V14.01,2013-06-18 21:30:00,
2013-06-18 16:35:00,86.2,50.2,26.96,ESE,105,3.1,3.1,29,0.00,,---,0.31,VWS V14.01,2013-06-18 21:35:00,
2013-06-18 16:40:00,84.2,48.5,26.96,ESE,113,4.0,6.3,29,0.00,,---,0.31,VWS V14.01,2013-06-18 21:40:00,
2013-06-18 16:45:00,85.3,49.5,26.93,ESE,119,3.1,5.4,29,0.00,,---,0.31,VWS V14.01,2013-06-18 21:45:00,
2013-06-18 16:50:00,86.2,50.2,26.93,ESE,114,4.0,4.0,29,0.00,,---,0.31,VWS V14.01,2013-06-18 21:50:00,
2013-06-18 16:55:00,84.9,49.2,26.93,East,89,3.6,5.4,29,0.00,,---,0.31,VWS V14.01,2013-06-18 21:55:00,
2013-06-18 17:00:00,85.6,49.8,26.93,ESE,118,4.0,4.0,29,0.00,,---,0.31,VWS V14.01,2013-06-18 22:00:00,
2013-06-18 17:05:00,86.0,50.1,26.93,ESE,113,3.6,3.6,29,0.00,,---,0.31,VWS V14.01,2013-06-18 22:05:00,
2013-06-18 17:10:00,86.2,50.2,26.93,ESE,115,4.9,4.9,29,0.00,,---,0.31,VWS V14.01,2013-06-18 22:10:00,
2013-06-18 17:15:00,84.0,48.4,26.93,ESE,103,3.1,4.0,29,0.00,,---,0.31,VWS V14.01,2013-06-18 22:15:00,
2013-06-18 17:20:00,86.7,50.7,26.93,East,99,2.7,4.0,29,0.00,,---,0.31,VWS V14.01,2013-06-18 22:20:00,
2013-06-18 17:25:00,85.5,49.6,26.93,East,93,5.4,5.4,29,0.00,,---,0.31,VWS V14.01,2013-06-18 22:25:00,
2013-06-18 17:30:00,85.3,49.5,26.93,East,89,4.0,4.0,29,0.00,,---,0.31,VWS V14.01,2013-06-18 22:30:00,
2013-06-18 17:35:00,86.0,50.1,26.93,East,101,4.0,4.0,29,0.00,,---,0.31,VWS V14.01,2013-06-18 22:35:00,
2013-06-18 17:40:00,85.6,49.8,26.93,East,92,3.1,4.9,29,0.00,,---,0.31,VWS V14.01,2013-06-18 22:40:00,
2013-06-18 17:45:00,86.7,50.7,26.93,East,93,3.6,3.6,29,0.00,,---,0.31,VWS V14.01,2013-06-18 22:45:00,
2013-06-18 17:50:00,84.0,48.4,26.93,ESE,113,3.6,5.4,29,0.00,,---,0.31,VWS V14.01,2013-06-18 22:50:00,
2013-06-18 17:55:00,86.7,50.7,26.93,East,92,2.7,3.6,29,0.00,,---,0.31,VWS V14.01,2013-06-18 22:55:00,
2013-06-18 18:00:00,86.2,50.2,26.93,East,93,3.6,3.6,29,0.00,,---,0.31,VWS V14.01,2013-06-18 23:00:00,
2013-06-18 18:05:00,86.5,50.5,26.93,East,97,4.0,4.0,29,0.00,,---,0.31,VWS V14.01,2013-06-18 23:05:00,
2013-06-18 18:10:00,85.5,49.6,26.93,East,82,4.9,4.9,29,0.00,,---,0.31,VWS V14.01,2013-06-18 23:10:00,
2013-06-18 18:15:00,84.6,48.8,26.93,ESE,104,4.0,5.4,29,0.00,,---,0.31,VWS V14.01,2013-06-18 23:15:00,
2013-06-18 18:20:00,84.9,49.2,26.93,East,91,3.6,4.0,29,0.00,,---,0.31,VWS V14.01,2013-06-18 23:20:00,
2013-06-18 18:25:00,85.8,49.9,26.93,East,92,2.2,2.2,29,0.00,,---,0.31,VWS V14.01,2013-06-18 23:25:00,
2013-06-18 18:30:00,84.7,49.0,26.90,East,90,5.8,5.8,29,0.00,,---,0.31,VWS V14.01,2013-06-18 23:30:00,
2013-06-18 18:35:00,85.1,49.3,26.90,ESE,113,4.0,4.0,29,0.00,,---,0.31,VWS V14.01,2013-06-18 23:35:00,
2013-06-18 18:40:00,85.5,49.6,26.90,East,94,3.6,3.6,29,0.00,,---,0.31,VWS V14.01,2013-06-18 23:40:00,
2013-06-18 18:45:00,85.1,49.3,26.90,ENE,62,4.0,4.0,29,0.00,,---,0.31,VWS V14.01,2013-06-18 23:45:00,
2013-06-18 18:50:00,85.3,49.5,26.90,ESE,111,2.7,4.0,29,0.00,,---,0.31,VWS V14.01,2013-06-18 23:50:00,
2013-06-18 18:55:00,84.7,49.0,26.90,East,96,3.1,3.1,29,0.00,,---,0.31,VWS V14.01,2013-06-18 23:55:00,
2013-06-18 19:00:00,84.4,48.7,26.90,East,81,2.7,3.6,29,0.00,,---,0.31,VWS V14.01,2013-06-19 00:00:00,
2013-06-18 19:05:00,81.9,47.4,26.90,East,100,4.0,4.0,30,0.00,,---,0.31,VWS V14.01,2013-06-19 00:05:00,
2013-06-18 19:10:00,80.4,46.2,26.90,ENE,75,4.9,4.9,30,0.00,,---,0.31,VWS V14.01,2013-06-19 00:10:00,
2013-06-18 19:15:00,79.7,45.6,26.90,East,92,3.1,3.1,30,0.00,,---,0.31,VWS V14.01,2013-06-19 00:15:00,
2013-06-18 19:20:00,79.7,45.6,26.90,East,88,3.1,3.1,30,0.00,,---,0.31,VWS V14.01,2013-06-19 00:20:00,
2013-06-18 19:25:00,78.1,45.0,26.90,East,91,2.7,3.1,31,0.00,,---,0.31,VWS V14.01,2013-06-19 00:25:00,
2013-06-18 19:30:00,77.5,44.5,26.90,East,89,2.7,3.1,31,0.00,,---,0.31,VWS V14.01,2013-06-19 00:30:00,
2013-06-18 19:35:00,77.2,44.2,26.90,East,90,3.6,3.6,31,0.00,,---,0.31,VWS V14.01,2013-06-19 00:35:00,
2013-06-18 19:40:00,77.0,44.1,26.90,East,85,2.7,2.7,31,0.00,,---,0.31,VWS V14.01,2013-06-19 00:40:00,
2013-06-18 19:45:00,76.6,43.8,26.90,East,82,3.1,3.6,31,0.00,,---,0.31,VWS V14.01,2013-06-19 00:45:00,
2013-06-18 19:50:00,76.3,43.5,26.90,East,82,3.1,3.1,31,0.00,,---,0.31,VWS V14.01,2013-06-19 00:50:00,
2013-06-18 19:55:00,76.1,43.3,26.90,East,93,3.1,3.1,31,0.00,,---,0.31,VWS V14.01,2013-06-19 00:55:00,
2013-06-18 20:00:00,75.7,43.0,26.90,ENE,64,3.1,3.1,31,0.00,,---,0.31,VWS V14.01,2013-06-19 01:00:00,
2013-06-18 20:05:00,75.4,42.7,26.90,East,90,3.6,3.6,31,0.00,,---,0.31,VWS V14.01,2013-06-19 01:05:00,
2013-06-18 20:10:00,75.2,42.5,26.90,East,89,3.1,4.0,31,0.00,,---,0.31,VWS V14.01,2013-06-19 01:10:00,
2013-06-18 20:15:00,74.8,42.2,26.90,East,93,3.1,3.1,31,0.00,,---,0.31,VWS V14.01,2013-06-19 01:15:00,
2013-06-18 20:20:00,74.5,41.9,26.90,East,86,3.6,3.6,31,0.00,,---,0.31,VWS V14.01,2013-06-19 01:20:00,
2013-06-18 20:25:00,74.3,41.7,26.90,East,86,3.1,3.1,31,0.00,,---,0.31,VWS V14.01,2013-06-19 01:25:00,
2013-06-18 20:30:00,73.9,41.4,26.90,East,83,2.7,3.1,31,0.00,,---,0.31,VWS V14.01,2013-06-19 01:30:00,
2013-06-18 20:35:00,73.8,41.3,26.90,East,85,4.0,4.0,31,0.00,,---,0.31,VWS V14.01,2013-06-19 01:35:00,
2013-06-18 20:40:00,73.4,41.0,26.90,East,86,3.1,3.1,31,0.00,,---,0.31,VWS V14.01,2013-06-19 01:40:00,
2013-06-18 20:45:00,72.9,41.3,26.90,East,93,3.6,3.6,32,0.00,,---,0.31,VWS V14.01,2013-06-19 01:45:00,
2013-06-18 20:50:00,72.3,40.8,26.90,East,97,3.1,3.1,32,0.00,,---,0.31,VWS V14.01,2013-06-19 01:50:00,
2013-06-18 20:55:00,72.1,40.7,26.90,East,97,2.7,2.7,32,0.00,,---,0.31,VWS V14.01,2013-06-19 01:55:00,
2013-06-18 21:00:00,71.8,40.4,26.90,East,95,3.1,3.1,32,0.00,,---,0.31,VWS V14.01,2013-06-19 02:00:00,
2013-06-18 21:05:00,71.6,40.2,26.90,East,86,3.6,3.6,32,0.00,,---,0.31,VWS V14.01,2013-06-19 02:05:00,
2013-06-18 21:10:00,71.6,40.2,26.90,East,101,4.0,4.0,32,0.00,,---,0.31,VWS V14.01,2013-06-19 02:10:00,
2013-06-18 21:15:00,71.6,40.2,26.90,ESE,111,4.0,4.0,32,0.00,,---,0.31,VWS V14.01,2013-06-19 02:15:00,
2013-06-18 21:20:00,71.4,40.0,26.90,ESE,118,3.6,3.6,32,0.00,,---,0.31,VWS V14.01,2013-06-19 02:20:00,
2013-06-18 21:25:00,71.4,40.0,26.90,ESE,118,3.6,3.6,32,0.00,,---,0.31,VWS V14.01,2013-06-19 02:25:00,
2013-06-18 21:30:00,71.2,39.9,26.90,ESE,122,5.4,5.4,32,0.00,,---,0.31,VWS V14.01,2013-06-19 02:30:00,
2013-06-18 21:35:00,71.1,39.7,26.90,ESE,122,4.0,4.0,32,0.00,,---,0.31,VWS V14.01,2013-06-19 02:35:00,
2013-06-18 21:40:00,70.7,39.4,26.90,SE,127,4.9,4.9,32,0.00,,---,0.31,VWS V14.01,2013-06-19 02:40:00,
2013-06-18 21:45:00,70.3,39.1,26.93,SE,125,4.0,4.0,32,0.00,,---,0.31,VWS V14.01,2013-06-19 02:45:00,
2013-06-18 21:50:00,70.2,39.0,26.93,ESE,123,4.0,4.5,32,0.00,,---,0.31,VWS V14.01,2013-06-19 02:50:00,
2013-06-18 21:55:00,69.8,38.6,26.93,ESE,123,3.6,4.0,32,0.00,,---,0.31,VWS V14.01,2013-06-19 02:55:00,
2013-06-18 22:00:00,69.3,39.0,26.93,ESE,123,2.7,2.7,33,0.00,,---,0.31,VWS V14.01,2013-06-19 03:00:00,
2013-06-18 22:05:00,69.3,39.0,26.93,ESE,123,3.6,3.6,33,0.00,,---,0.31,VWS V14.01,2013-06-19 03:05:00,
2013-06-18 22:10:00,68.7,38.5,26.93,ESE,123,3.1,3.1,33,0.00,,---,0.31,VWS V14.01,2013-06-19 03:10:00,
2013-06-18 22:15:00,68.7,38.5,26.93,ESE,123,2.7,2.7,33,0.00,,---,0.31,VWS V14.01,2013-06-19 03:15:00,
2013-06-18 22:20:00,68.7,38.5,26.93,ESE,123,3.1,3.1,33,0.00,,---,0.31,VWS V14.01,2013-06-19 03:20:00,
2013-06-18 22:25:00,68.2,38.0,26.93,ESE,123,2.7,3.1,33,0.00,,---,0.31,VWS V14.01,2013-06-19 03:25:00,
2013-06-18 22:30:00,68.0,37.8,26.93,ESE,123,3.6,3.6,33,0.00,,---,0.31,VWS V14.01,2013-06-19 03:30:00,
2013-06-18 22:35:00,67.3,37.2,26.93,ESE,123,3.1,3.1,33,0.00,,---,0.31,VWS V14.01,2013-06-19 03:35:00,
2013-06-18 22:40:00,67.3,37.2,26.93,ESE,123,3.1,3.1,33,0.00,,---,0.31,VWS V14.01,2013-06-19 03:40:00,
2013-06-18 22:45:00,66.9,36.9,26.93,ESE,123,2.7,3.1,33,0.00,,---,0.31,VWS V14.01,2013-06-19 03:45:00,
2013-06-18 22:50:00,66.6,36.6,26.93,ESE,123,2.7,2.7,33,0.00,,---,0.31,VWS V14.01,2013-06-19 03:50:00,
2013-06-18 22:55:00,66.0,36.1,26.93,ESE,123,2.2,2.2,33,0.00,,---,0.31,VWS V14.01,2013-06-19 03:55:00,
2013-06-18 23:00:00,65.5,35.6,26.96,ESE,123,0.0,0.0,33,0.00,,---,0.31,VWS V14.01,2013-06-19 04:00:00,
2013-06-18 23:01:00,65.5,35.6,26.96,ESE,123,2.2,2.2,33,0.00,,---,0.31,VWS V14.01,2013-06-19 04:01:00,
2013-06-18 23:06:00,65.1,35.3,26.96,ESE,123,0.0,0.0,33,0.00,,---,0.31,VWS V14.01,2013-06-19 04:06:00,
2013-06-18 23:11:00,64.8,35.0,26.96,ESE,123,2.2,2.2,33,0.00,,---,0.31,VWS V14.01,2013-06-19 04:11:00,
2013-06-18 23:16:00,64.4,34.7,26.96,ESE,123,2.2,2.2,33,0.00,,---,0.31,VWS V14.01,2013-06-19 04:16:00,
2013-06-18 23:21:00,64.2,35.3,26.96,ESE,123,2.7,2.7,34,0.00,,---,0.31,VWS V14.01,2013-06-19 04:21:00,
2013-06-18 23:26:00,64.0,35.1,26.96,ESE,123,0.0,0.0,34,0.00,,---,0.31,VWS V14.01,2013-06-19 04:26:00,
2013-06-18 23:31:00,63.9,35.0,26.96,ESE,123,0.0,0.0,34,0.00,,---,0.31,VWS V14.01,2013-06-19 04:31:00,
2013-06-18 23:36:00,63.7,34.8,26.96,East,100,2.2,3.1,34,0.00,,---,0.31,VWS V14.01,2013-06-19 04:36:00,
2013-06-18 23:41:00,63.7,34.8,26.96,East,100,2.2,2.2,34,0.00,,---,0.31,VWS V14.01,2013-06-19 04:41:00,
2013-06-18 23:46:00,63.7,34.8,26.93,East,100,2.7,2.7,34,0.00,,---,0.31,VWS V14.01,2013-06-19 04:46:00,
2013-06-18 23:51:00,63.5,34.7,26.93,East,100,2.2,2.2,34,0.00,,---,0.31,VWS V14.01,2013-06-19 04:51:00,
2013-06-18 23:56:00,63.5,34.7,26.93,East,93,2.7,2.7,34,0.00,,---,0.31,VWS V14.01,2013-06-19 04:56:00,